{"data":{"norad_id":49312,"intl_designator":"2021-090AK","name":"ONEWEB-0386","alt_names":[],"object_type":"PAYLOAD","status":"ACTIVE","operator":null,"country":"UK","launch_date":"2021-10-14","launch_site_code":"VOSTO","launch_vehicle":null,"mission":null,"orbit_class":"UNKNOWN","rcs_meters":null,"size_class":null,"mass_kg":null,"dimensions":null,"purposes":["comms"],"wikipedia_slug":null,"has_3d_model":false,"image_url":null,"decayed_at":null,"tle_current":{"epoch":"2026-09-19T16:48:05.538240Z","epoch_age_seconds":96256,"freshness":"FRESH","line1":"1 49312U 21090AK  26262.70006410 -.00000806  00000+0 -20143-2 0  9994","line2":"2 49312  87.9156 255.5763 0002292  83.8614 276.2780 13.20785133242299","mean_motion":13.20785133,"eccentricity":0.0002292,"inclination_deg":87.9156,"raan_deg":255.5763,"arg_perigee_deg":83.8614,"mean_anomaly_deg":276.278,"bstar":-0.0020143,"rev_number":24229,"period_min":109.02606063783,"perigee_km":1179.9898252381,"apogee_km":1183.4552648536,"semimajor_km":7559.8595450459,"source":"CELESTRAK","updated_at":"2026-09-20T09:00:44.675742Z"}}}